Hourly Data Report for January 05, 2022

TERRACE A
BRITISH COLUMBIA
Current Station Operator: NAVCAN

54°28'07.000" N
128°34'42.000" W
217.30 m
1068134
71951
YXT

Download Data

Hourly Data (January 2022)
Hourly Data Report for January 5, 2022
TIME
LST
Temp Definition
°C
Dew Point Definition
°C
Rel Hum Definition
%
Precip. Amount Definition
mm

Wind Dir Definition
10's deg

Wind Spd Definition
km/h
Visibility Definition
km
Stn Press Definition
kPa
Hmdx Definition


Wind Chill Definition


Weather Definition


00:00 -18.0 -24.0 60 LegendMM 1 39 24.1 100.38   -31 LegendNANA
01:00 -18.1 -24.4 58 LegendMM 36 37 24.1 100.39   -31 Clear
02:00 -18.2 -24.7 58 LegendMM 1 36 24.1 100.45   -31 LegendNANA
03:00 -18.5 -24.6 59 LegendMM 1 35 24.1 100.52   -31 LegendNANA
04:00 -18.5 -25.2 56 LegendMM 2 40 24.1 100.54   -32 Clear
05:00 -19.0 -25.2 59 LegendMM 36 39 24.1 100.46   -33 LegendNANA
06:00 -19.2 -25.4 59 LegendMM 1 33 24.1 100.52   -32 LegendNANA
07:00 -19.3 -25.6 58 LegendMM 1 41 24.1 100.55   -33 Mainly Clear
08:00 -19.5 -25.7 59 LegendMM 1 38 32.2 100.52   -33 Blowing Snow
09:00 -19.5 -26.1 57 LegendMM 2 44 32.2 100.57   -34 Blowing Snow
10:00 -19.4 -26.0 57 LegendMM 1 45 32.2 100.61   -34 Blowing Snow
11:00 -19.2 -26.1 55 LegendMM 1 36 32.2 100.60   -32 Blowing Snow
12:00 -18.7 -25.9 54 LegendMM 1 34 32.2 100.53   -32 Blowing Snow
13:00 -17.9 -25.5 52 LegendMM 1 35 32.2 100.50   -31 Mostly Cloudy
14:00 -18.2 -25.5 54 LegendMM 1 38 32.2 100.46   -31 Blowing Snow
15:00 -17.8 -25.1 54 LegendMM 1 40 32.2 100.37   -31 Blowing Snow
16:00 -17.8 -25.0 54 LegendMM 1 40 32.2 100.31   -31 Blowing Snow
17:00 -18.3 -24.7 58 LegendMM 1 44 32.2 100.20   -32 Blowing Snow
18:00 -17.6 -24.8 54 LegendMM 1 34 32.2 100.11   -30 Blowing Snow
19:00 -18.3 -24.7 58 LegendMM 1 44 32.2 100.00   -32 Blowing Snow
20:00 -17.9 -24.4 57 LegendMM 1 41 24.1 99.90   -31 Blowing Snow
21:00 -17.9 -24.6 56 LegendMM 36 44 24.1 99.88   -32 Blowing Snow
22:00 -17.9 -24.4 57 LegendMM 1 49 24.1 99.77   -32 Blowing Snow
23:00 -18.1 -24.2 59 LegendMM 1 48 24.1 99.67   -33 Blowing Snow

Notes on Data Quality.

Legend

  • E = Estimated
  • M = Missing
  • NA = Not Available*
  • [empty] = Indicates an unobserved value
Date modified: